SCP
0 0 0 0 0 0 0 0 0 0 0 0 1 1 1 1 1 2 2 2 3 3 3 4 4 5 5 5 4 3 3 2 2 2 2 2 2 2 1 1 1 1 1 1
0 0 0 0 0 0 0 0 0 0 0 0 0 1 1 1 1 2 2 3 3 4 4 4 5 5 5 5 4 4 3 2 2 2 2 2 2 1 1 1 1 1 1 1
0 0 0 0 0 0 0 0 0 0 0 0 0 1 1 1 1 2 2 3 4 5 5 5 5 5 5 5 5 4 3 2 2 2 2 2 2 1 1 1 1 1 1 1
0 0 0 0 0 0 0 0 0 0 0 0 0 0 1 1 1 2 2 3 5 6 6 6 6 6 5 5 5 5 4 3 2 2 2 2 2 1 1 1 1 1 1 1
0 0 0 0 0 0 0 0 0 0 0 0 0 0 0 1 1 2 3 4 5 6 6 6 7 6 6 6 6 6 5 3 3 2 2 2 2 1 1 1 1 1 1 1
0 0 0 0 0 0 0 0 0 0 0 0 0 0 0 1 1 2 3 4 5 6 6 7 8 7 7 7 7 7 6 4 3 2 2 2 2 1 1 1 1 1 1 1
0 0 0 0 0 0 0 0 0 0 0 0 0 0 0 0 1 3 4 4 4 6 7 8 8 8 8 8 8 7 6 4 3 3 2 2 2 1 1 1 1 1 1 1
0 0 0 0 0 0 0 0 0 0 0 0 0 0 0 1 2 3 4 4 4 6 8 8 8 8 8 8 7 6 5 4 4 3 3 2 2 1 1 1 1 1 1 1
0 0 0 0 0 0 0 0 0 0 0 0 0 0 1 2 4 4 4 4 5 6 8 8 9 9 8 7 7 6 5 4 4 4 3 3 2 2 1 1 1 1 1 1
0 0 0 0 0 0 0 0 0 0 0 0 0 0 1 3 4 6 5 5 5 7 8 10 11 11 9 8 7 5 4 4 4 4 3 2 2 2 2 2 2 2 1 1
0 0 0 0 0 0 0 0 0 0 0 0 0 0 1 2 4 5 6 6 6 8 9 10 11 12 11 10 8 6 4 3 3 3 3 2 2 2 2 3 3 3 3 3
0 0 0 0 0 0 0 0 0 0 0 0 0 1 2 3 4 5 6 6 7 9 10 9 9 11 11 11 9 7 5 4 3 3 2 2 2 2 3 4 4 5 5 5
0 0 0 0 0 0 0 0 0 0 0 0 1 2 3 4 4 4 5 6 8 10 10 8 8 9 10 10 9 7 6 4 3 3 3 3 3 3 4 5 6 7 7 7
0 0 0 0 0 0 0 0 0 0 0 0 1 2 4 4 4 5 6 7 10 12 11 9 7 7 8 8 8 7 7 6 5 4 3 3 3 4 4 5 6 8 10 10
0 0 0 0 0 0 0 0 0 0 0 0 1 3 4 5 5 6 7 8 11 13 12 9 8 7 7 8 8 9 9 8 7 5 4 4 4 4 4 5 6 8 10 11
0 0 0 0 0 0 0 0 1 1 1 1 2 4 5 7 8 8 8 9 11 13 12 11 10 10 10 11 12 13 12 11 10 8 6 5 5 4 4 4 5 6 8 9
0 0 0 0 0 0 0 1 1 2 2 2 3 4 7 10 12 11 10 10 11 13 15 18 18 16 15 16 17 18 17 15 12 10 7 7 6 6 5 5 4 5 6 7
0 0 0 0 0 0 1 1 2 3 3 3 4 5 8 13 15 14 12 12 13 15 19 22 22 19 21 23 24 23 22 19 15 11 9 8 8 8 6 5 4 4 5 6
0 0 0 0 0 0 1 1 2 3 3 4 4 6 10 14 17 15 13 14 16 18 18 18 17 19 24 29 29 27 25 21 17 12 10 9 9 8 7 6 5 4 4 5
0 0 0 0 0 0 1 1 2 3 3 4 5 7 9 13 15 15 14 16 19 20 17 13 12 16 25 31 31 28 24 19 15 12 11 10 10 9 8 8 7 6 5 5
0 0 0 0 0 0 1 1 2 2 3 4 6 8 11 14 16 18 18 19 21 22 19 14 11 15 22 27 28 25 20 16 13 12 12 12 12 11 11 10 9 7 6 6
1 1 1 1 1 1 1 2 2 2 3 5 7 11 16 19 22 23 22 21 21 21 19 15 12 14 17 20 21 18 15 15 16 16 15 15 16 15 14 13 10 9 8 7
1 1 1 1 2 2 2 2 2 3 4 5 8 13 18 21 22 22 22 21 19 19 17 14 14 14 13 14 14 13 12 14 18 19 18 19 20 19 16 13 10 9 7 6
1 1 2 2 3 3 3 3 3 4 5 7 10 15 17 18 18 19 19 18 18 18 16 14 14 13 12 10 10 10 10 11 13 15 17 21 21 18 14 12 10 8 6 5
1 1 2 2 3 3 3 4 4 5 7 10 14 17 17 15 16 18 17 14 15 15 14 13 13 12 10 8 7 7 7 8 9 11 15 19 18 14 11 10 8 6 4 4
1 1 1 1 2 2 3 4 5 6 10 14 18 18 16 15 15 15 14 12 11 12 12 13 12 11 9 7 6 5 5 7 9 11 14 16 13 10 9 9 7 4 3 3
Wind_Speed
3 3 4 8 7 7 5 3 4 4 5 6 5 6 8 10 11 12 10 10 11 11 10 10 11 12 10 8 8 9 8 6 5 3 3 2 2 2 2 3 4 4 4 4
5 5 11 8 7 4 3 2 2 1 3 5 4 3 5 8 13 15 15 14 12 10 9 10 10 10 11 10 9 9 8 7 6 4 3 3 3 2 2 3 3 4 4 4
6 10 7 5 5 4 2 3 3 3 2 3 5 2 2 3 5 8 11 12 13 15 15 13 12 11 11 11 11 10 9 8 7 5 3 2 2 1 1 1 2 3 4 4
6 8 6 5 5 3 4 4 3 3 4 1 3 2 6 4 3 7 10 10 12 12 12 12 12 12 12 11 10 9 9 8 7 6 5 5 4 3 3 3 2 3 3 4
6 4 4 5 6 3 5 3 2 3 4 2 2 3 7 2 4 7 10 12 13 13 14 14 14 13 12 11 10 8 8 7 7 6 6 6 4 3 2 2 3 2 2 3
7 5 4 6 5 3 2 4 7 6 6 1 3 4 6 6 10 9 9 11 12 13 13 12 11 10 9 9 9 8 8 7 7 7 6 6 6 5 4 3 3 3 2 2
6 7 5 2 2 4 4 7 5 5 5 4 3 3 8 9 9 10 12 12 12 12 13 12 11 11 11 11 10 9 9 7 7 7 6 6 6 6 6 5 4 4 2 2
3 7 5 2 4 4 3 10 8 5 4 4 3 3 7 6 5 7 9 11 11 12 11 13 13 13 12 12 11 10 10 8 8 8 7 6 6 4 4 4 4 4 3 3
6 8 7 5 4 6 3 4 9 8 2 0 4 3 5 3 3 4 7 9 11 11 12 12 12 12 12 12 12 12 11 9 9 8 7 6 6 5 4 4 3 3 3 3
8 5 7 5 2 1 7 7 7 6 5 1 3 3 4 3 3 4 7 9 10 10 11 11 11 11 11 11 10 10 10 10 9 8 7 6 6 6 5 4 4 3 3 3
4 4 6 4 1 3 0 2 6 5 6 7 3 7 7 9 6 6 7 9 11 12 12 11 9 9 10 9 10 10 9 8 8 8 7 6 6 5 5 5 5 4 4 3
1 5 2 6 5 3 4 4 7 5 4 5 5 8 6 6 6 6 6 8 9 10 9 9 9 9 8 9 9 9 9 9 8 8 7 6 6 6 5 5 5 5 4 4
3 6 3 8 9 7 2 0 3 5 5 5 5 7 3 3 3 5 7 8 8 7 7 7 7 8 9 9 9 9 9 9 8 8 7 6 6 6 6 5 5 4 4 4
5 5 6 6 6 3 4 5 1 5 3 4 7 6 3 2 4 4 6 8 8 8 8 8 7 7 8 9 9 10 9 9 9 8 8 8 7 7 6 5 5 5 5 4
6 4 1 2 4 2 3 5 4 1 5 7 7 7 7 5 6 6 6 8 9 8 8 9 9 7 7 7 7 8 9 8 8 9 9 8 7 6 6 5 5 4 4 5
5 3 3 5 5 6 5 5 4 3 2 2 2 2 4 4 4 5 5 8 8 8 8 7 7 6 6 7 7 7 8 8 9 9 9 7 7 7 6 6 5 4 4 4
2 4 4 3 6 5 5 3 1 2 2 3 3 4 1 5 6 7 7 7 6 6 6 6 5 5 5 5 6 7 7 7 9 8 8 7 8 7 6 6 5 5 4 3
4 3 2 0 4 4 8 3 1 3 4 2 2 1 3 5 4 4 5 6 5 5 4 5 4 4 3 2 3 4 4 6 7 8 8 7 8 7 6 6 6 5 4 4
7 7 3 2 2 6 7 4 2 2 5 4 3 3 4 4 7 5 3 4 5 4 3 3 4 5 5 3 3 4 4 4 5 6 6 7 8 8 7 7 6 5 4 4
3 5 5 3 3 6 6 6 4 4 2 4 2 4 2 4 4 1 1 3 4 4 3 3 3 4 4 3 3 4 3 4 5 5 5 6 7 8 8 7 6 4 4 4
3 2 4 5 5 7 5 6 5 2 5 3 1 3 3 2 4 4 2 3 4 4 4 4 4 4 2 2 4 5 4 4 4 4 4 4 5 6 7 5 4 4 4 4
2 1 2 3 3 7 6 5 2 3 2 1 1 2 3 4 4 5 4 4 4 3 4 5 4 3 2 3 4 3 2 2 2 3 4 4 5 5 5 6 5 5 5 5
1 3 4 4 5 4 2 2 1 2 2 2 2 3 6 5 5 5 4 3 3 3 3 4 5 3 3 3 4 3 0 1 3 3 2 3 3 4 5 6 6 5 5 4
3 2 2 2 2 3 3 4 4 4 4 4 3 3 5 5 4 3 3 3 3 3 3 3 4 4 2 2 2 3 1 1 3 3 2 3 3 3 3 3 4 4 5 5
3 2 1 1 3 4 5 4 4 5 5 6 5 4 3 4 3 2 2 3 3 3 2 3 3 3 2 2 2 2 1 1 2 3 2 2 3 3 3 3 2 3 3 5
2 2 2 4 5 2 3 3 2 4 4 4 4 4 3 3 3 2 1 2 3 3 3 3 3 3 2 2 2 2 1 2 3 2 2 1 2 2 3 4 2 2 1 2
Wind_Direction
339 59 255 249 223 210 219 226 246 232 180 147 172 189 183 177 177 179 182 182 183 184 178 169 169 165 161 161 159 160 161 167 157 144 148 152 173 175 179 193 193 184 186 176
3 279 246 247 258 250 229 237 265 292 144 134 148 187 191 185 190 187 184 183 181 173 167 170 169 168 169 170 168 166 170 170 169 169 166 162 163 180 187 195 194 190 183 179
224 247 262 267 271 268 272 192 205 182 61 71 105 352 273 227 201 195 191 183 177 177 175 174 172 174 172 175 175 174 174 171 172 166 147 127 106 90 117 185 210 208 189 188
247 254 265 272 262 213 264 244 181 142 101 287 133 172 268 231 227 200 189 182 182 181 174 173 173 175 179 180 175 169 170 170 172 166 163 165 172 186 203 193 197 209 198 192
266 271 268 257 250 211 223 231 136 138 122 50 19 127 267 221 212 211 191 185 183 181 177 178 179 180 179 174 171 169 167 170 172 171 171 170 181 189 188 182 189 204 203 196
255 266 234 229 250 227 198 37 27 52 73 54 241 153 255 227 206 201 193 184 181 177 176 178 177 170 168 167 168 168 168 174 173 172 172 173 180 181 176 190 190 200 201 211
307 302 286 261 301 328 80 80 32 6 15 257 252 162 236 237 208 188 180 181 175 171 172 171 170 169 170 170 171 171 171 176 177 175 178 182 185 186 191 195 194 190 191 206
242 284 276 245 187 201 176 133 152 187 213 268 313 224 255 250 205 177 173 173 169 169 172 177 177 173 173 174 173 172 172 176 177 179 183 185 186 188 198 197 189 192 199 207
199 253 277 262 220 162 160 166 166 141 155 25 300 302 329 31 101 136 156 161 171 173 174 180 180 175 174 174 176 175 176 178 182 182 180 184 185 186 191 191 189 195 204 207
177 240 283 296 2 265 168 154 94 108 135 207 301 274 228 220 180 160 165 171 175 170 170 177 178 175 174 174 174 175 177 180 182 182 183 185 186 187 183 176 182 194 203 210
152 177 295 357 167 237 209 110 112 123 148 150 206 264 226 200 190 180 181 175 171 171 174 177 174 170 168 170 171 174 178 178 180 182 183 182 185 185 182 186 186 191 194 197
127 128 245 268 265 221 179 177 143 150 203 157 161 259 255 188 172 161 168 168 167 171 173 169 165 163 164 168 172 175 181 183 186 183 181 184 184 181 183 190 194 188 188 190
87 100 53 342 344 358 13 338 144 136 126 147 160 254 278 146 148 156 155 156 153 161 162 157 159 167 172 175 175 178 185 186 183 178 180 182 181 182 188 191 189 184 183 186
83 93 145 188 226 272 310 314 334 118 146 195 202 219 262 172 163 165 160 156 151 167 165 163 168 176 178 181 178 177 186 184 179 177 179 183 186 186 186 183 182 181 178 177
72 82 85 245 261 288 289 304 306 229 190 189 213 199 220 200 176 168 159 146 146 167 171 172 175 183 187 181 177 177 179 179 177 177 183 189 186 181 177 177 177 172 168 169
53 78 28 349 344 347 326 315 313 299 256 205 155 239 234 174 123 121 132 135 143 157 162 164 169 172 180 183 182 179 178 179 175 180 187 183 175 174 174 172 167 163 163 161
40 75 53 318 325 3 303 290 326 336 318 164 183 234 217 116 128 150 151 137 143 154 153 149 155 164 178 184 176 184 184 175 174 180 183 179 175 174 173 171 162 166 166 157
139 101 116 352 16 252 249 277 69 58 357 58 117 157 133 141 140 120 128 133 139 152 145 145 147 146 152 160 165 171 171 169 173 175 177 178 176 175 169 164 167 171 166 162
154 143 134 131 226 276 297 318 358 70 346 358 87 87 82 99 82 57 59 120 132 129 134 152 147 135 127 142 163 145 151 158 165 177 181 181 176 170 168 171 176 173 161 159
79 120 134 157 195 238 258 302 319 90 323 326 91 120 118 92 100 202 233 109 94 88 99 115 123 113 124 145 142 137 156 162 176 185 185 179 174 169 168 172 171 164 157 159
13 51 155 184 214 255 278 316 7 115 230 291 127 138 144 158 178 169 129 92 92 90 92 94 104 109 141 153 128 135 157 183 185 173 169 163 165 167 162 160 161 158 155 152
190 152 193 165 201 254 317 13 57 233 268 343 47 96 102 105 98 97 94 94 101 95 85 93 91 72 68 95 105 120 150 184 148 143 151 156 159 164 159 157 161 158 157 157
142 182 188 190 211 253 335 105 202 124 69 23 38 82 98 98 100 92 85 90 95 89 79 85 99 86 67 86 113 118 119 122 121 123 147 155 159 162 160 161 162 158 160 167
325 17 75 8 315 336 10 30 31 59 68 46 51 59 83 90 92 94 94 94 96 87 83 76 79 82 71 70 95 126 168 143 126 139 149 143 142 144 143 148 157 164 171 176
279 343 38 302 292 351 9 15 30 46 49 46 42 48 65 72 66 81 115 117 116 104 97 98 101 103 93 71 70 76 104 128 122 120 122 137 154 154 151 147 155 175 190 194
245 198 186 238 246 208 265 286 29 61 53 50 53 45 42 73 49 23 95 146 139 129 127 118 107 102 88 76 65 48 63 118 119 118 135 154 168 169 162 152 123 57 147 168